Hobart, OK

4:01 PM CST on February 24, 2017 (GMT -0600)
Hobart Municipal

Weather History for KHBR - November, 2012

Change the Weather History Date:

Sunday, November 18, 2012

  Actual Average Record
Temperature  
Mean Temperature 58 °F -  
Max Temperature 69 °F 57 °F 80 °F (1999)
Min Temperature 48 °F 36 °F 21 °F (2014)
Degree Days  
Heating Degree Days 6    
Growing Degree Days 8 (Base 50)    
Moisture  
Dew Point 38 °F    
Average Humidity 49    
Maximum Humidity 67    
Minimum Humidity 36    
Precipitation  
Precipitation 0.00 in - - ()
Sea Level Pressure  
Sea Level Pressure 30.13 in    
Wind  
Wind Speed 18 mph (South)    
Max Wind Speed 31 mph    
Max Gust Speed 36 mph    
Visibility 10 miles    
Events      
Averages and records for this station are not official NWS values.
T = Trace of Precipitation, MM = Missing Value Source: NWS Daily Summary

Daily Weather History Graph

Daily Weather History Graph

Search for Another Location

Airport or City:

Trip Planner

Search our weather history database for the weather conditions in past years. The results will help you decide how hot, cold, wet, or windy it might be!

Date:

Astronomy

Nov. 18, 2012 Rise Set
Actual Time 7:14 AM CST 5:28 PM CST
Civil Twilight 6:46 AM CST 5:55 PM CST
Nautical Twilight 6:16 AM CST 6:26 PM CST
Astronomical Twilight 5:46 AM CST 6:56 PM CST
Moon 11:44 AM CST (11/18) 10:46 PM CST (11/18)
Length of Visible Light 11h 08m
Length of Day
10h 14m
Waxing Crescent, 30% of the Moon is Illuminated
Nov 18
Waxing Crescent
Nov 20
First Quarter
Nov 28
Full
Dec 6
Last Quarter
Dec 13
New

Hourly Weather History & Observations

Time (CST) Temp. Dew Point Humidity Pressure Visibility Wind Dir Wind Speed Gust Speed Precip Events Conditions
12:53 AM 48.9 °F 28.9 °F 46% 30.20 in 10.0 mi South 16.1 mph - N/A   Clear
1:53 AM 48.9 °F 30.0 °F 48% 30.18 in 10.0 mi South 13.8 mph - N/A   Clear
2:53 AM 48.9 °F 30.0 °F 48% 30.18 in 10.0 mi South 18.4 mph - N/A   Clear
3:53 AM 48.9 °F 30.9 °F 50% 30.16 in 10.0 mi South 15.0 mph - N/A   Clear
4:53 AM 48.9 °F 32.0 °F 52% 30.16 in 10.0 mi South 12.7 mph - N/A   Partly Cloudy
5:53 AM 48.9 °F 32.0 °F 52% 30.17 in 10.0 mi South 15.0 mph - N/A   Clear
6:53 AM 48.9 °F 33.1 °F 54% 30.17 in 10.0 mi South 12.7 mph - N/A   Clear
7:53 AM 51.1 °F 34.0 °F 52% 30.19 in 10.0 mi South 13.8 mph - N/A   Clear
8:53 AM 53.1 °F 33.1 °F 47% 30.17 in 10.0 mi South 18.4 mph - N/A   Clear
9:53 AM 55.9 °F 34.0 °F 44% 30.17 in 10.0 mi South 17.3 mph - N/A   Clear
10:53 AM 62.1 °F 35.1 °F 37% 30.15 in 10.0 mi South 25.3 mph 32.2 mph N/A   Clear
11:53 AM 66.0 °F 37.9 °F 36% 30.11 in 10.0 mi SSW 31.1 mph 35.7 mph N/A   Clear
12:53 PM 68.0 °F 41.0 °F 37% 30.08 in 10.0 mi South 26.5 mph 34.5 mph N/A   Clear
1:53 PM 68.0 °F 43.0 °F 40% 30.06 in 10.0 mi SSW 25.3 mph 33.4 mph N/A   Clear
2:53 PM 69.1 °F 43.0 °F 39% 30.06 in 10.0 mi SSW 26.5 mph 33.4 mph N/A   Clear
3:53 PM 68.0 °F 44.1 °F 42% 30.06 in 10.0 mi South 25.3 mph 32.2 mph N/A   Partly Cloudy
4:53 PM 66.0 °F 45.0 °F 47% 30.08 in 10.0 mi SSW 21.9 mph 25.3 mph N/A   Partly Cloudy
5:53 PM 64.9 °F 46.0 °F 50% 30.09 in 10.0 mi South 19.6 mph - N/A   Overcast
6:53 PM 62.1 °F 37.0 °F 39% 30.09 in 10.0 mi South 19.6 mph 27.6 mph N/A   Mostly Cloudy
7:53 PM 60.1 °F 48.9 °F 67% 30.09 in 10.0 mi South 16.1 mph - N/A   Overcast
8:53 PM 57.9 °F 46.0 °F 65% 30.11 in 10.0 mi South 13.8 mph - N/A   Overcast
9:53 PM 57.9 °F 43.0 °F 58% 30.11 in 10.0 mi South 18.4 mph - N/A   Scattered Clouds
10:53 PM 57.2 °F 44.6 °F 63% 30.10 in 10.0 mi South 19.6 mph - N/A   Clear
11:53 PM 57.0 °F 44.1 °F 62% 30.10 in 10.0 mi South 13.8 mph - N/A   Clear